TimeCST,TemperatureF,Dew PointF,Humidity,Sea Level PressureIn,VisibilityMPH,Wind Direction,Wind SpeedMPH,Gust SpeedMPH,PrecipitationIn,Events,Conditions,WindDirDegrees,DateUTC
12:10 AM,23.0,17.6,80,30.35,10.0,NW,18.4,-,N/A,,Overcast,310,2008-01-01 06:10:00
12:30 AM,23.0,17.6,80,30.37,10.0,NW,18.4,-,N/A,,Overcast,320,2008-01-01 06:30:00
12:50 AM,23.0,17.6,80,30.37,10.0,NW,17.3,-,N/A,,Overcast,320,2008-01-01 06:50:00
1:10 AM,23.0,17.6,80,30.37,10.0,NW,15.0,-,N/A,,Mostly Cloudy,310,2008-01-01 07:10:00
1:30 AM,21.2,15.8,80,30.38,10.0,NW,13.8,-,N/A,,Mostly Cloudy,320,2008-01-01 07:30:00
1:50 AM,21.2,14.0,74,30.39,10.0,NW,11.5,-,N/A,,Scattered Clouds,320,2008-01-01 07:50:00
2:10 AM,21.2,14.0,74,30.40,10.0,NW,10.4,-,N/A,,Scattered Clouds,320,2008-01-01 08:10:00
2:30 AM,19.4,14.0,80,30.41,10.0,NW,10.4,-,N/A,,Scattered Clouds,320,2008-01-01 08:30:00
2:50 AM,19.4,14.0,80,30.42,10.0,NNW,9.2,-,N/A,,Scattered Clouds,330,2008-01-01 08:50:00
3:10 AM,17.6,12.2,79,30.43,10.0,NW,9.2,-,N/A,,Scattered Clouds,320,2008-01-01 09:10:00
3:30 AM,17.6,12.2,79,30.44,10.0,NW,8.1,-,N/A,,Clear,310,2008-01-01 09:30:00
3:50 AM,17.6,12.2,79,30.45,10.0,NW,8.1,-,N/A,,Clear,310,2008-01-01 09:50:00
4:10 AM,17.6,12.2,79,30.45,10.0,WNW,8.1,-,N/A,,Scattered Clouds,300,2008-01-01 10:10:00
4:30 AM,17.6,10.4,73,30.46,10.0,NW,11.5,-,N/A,,Scattered Clouds,310,2008-01-01 10:30:00
4:50 AM,17.6,10.4,73,30.46,10.0,NW,12.7,-,N/A,,Scattered Clouds,310,2008-01-01 10:50:00
5:10 AM,17.6,10.4,73,30.47,10.0,NW,11.5,-,N/A,,Scattered Clouds,310,2008-01-01 11:10:00
5:30 AM,17.6,10.4,73,30.48,10.0,WNW,10.4,-,N/A,,Scattered Clouds,300,2008-01-01 11:30:00
5:50 AM,17.6,8.6,68,30.48,10.0,WNW,10.4,-,N/A,,Scattered Clouds,300,2008-01-01 11:50:00
6:10 AM,17.6,8.6,68,30.49,10.0,WNW,13.8,-,N/A,,Scattered Clouds,300,2008-01-01 12:10:00
6:30 AM,15.8,8.6,73,30.50,10.0,WNW,13.8,-,N/A,,Clear,290,2008-01-01 12:30:00
6:50 AM,17.6,8.6,68,30.51,10.0,NW,17.3,-,N/A,,Clear,310,2008-01-01 12:50:00
7:10 AM,17.6,8.6,68,30.52,10.0,NW,17.3,23.0,N/A,,Clear,310,2008-01-01 13:10:00
7:30 AM,17.6,8.6,68,30.52,10.0,WNW,17.3,-,N/A,,Clear,300,2008-01-01 13:30:00
7:50 AM,15.8,6.8,68,30.53,10.0,NW,16.1,-,N/A,,Clear,310,2008-01-01 13:50:00
8:10 AM,17.6,6.8,63,30.54,10.0,WNW,16.1,-,N/A,,Clear,300,2008-01-01 14:10:00
8:30 AM,15.8,6.8,68,30.54,10.0,WNW,13.8,-,N/A,,Clear,300,2008-01-01 14:30:00
8:50 AM,15.8,5.0,62,30.55,10.0,WNW,16.1,-,N/A,,Clear,290,2008-01-01 14:50:00
9:10 AM,15.8,5.0,62,30.56,10.0,WNW,11.5,-,N/A,,Clear,300,2008-01-01 15:10:00
9:30 AM,15.8,6.8,68,30.57,10.0,WNW,11.5,-,N/A,,Clear,290,2008-01-01 15:30:00
9:50 AM,15.8,6.8,68,30.58,10.0,West,11.5,-,N/A,,Clear,280,2008-01-01 15:50:00
10:10 AM,17.6,6.8,63,30.59,10.0,WNW,16.1,21.9,N/A,,Clear,290,2008-01-01 16:10:00
10:30 AM,17.6,8.6,68,30.59,10.0,WNW,20.7,26.5,N/A,,Clear,300,2008-01-01 16:30:00
10:50 AM,17.6,8.6,68,30.60,7.0,NW,23.0,-,N/A,,Clear,320,2008-01-01 16:50:00
11:10 AM,17.6,8.6,68,30.61,10.0,NW,20.7,27.6,N/A,,Clear,320,2008-01-01 17:10:00
11:30 AM,17.6,8.6,68,30.61,5.0,NNW,23.0,28.8,N/A,,Haze,330,2008-01-01 17:30:00
11:50 AM,17.6,8.6,68,30.61,5.0,NW,18.4,-,N/A,,Haze,320,2008-01-01 17:50:00
12:10 PM,17.6,8.6,68,30.61,7.0,NW,19.6,26.5,N/A,,Clear,320,2008-01-01 18:10:00
12:30 PM,19.4,8.6,63,30.61,10.0,NW,21.9,-,N/A,,Clear,320,2008-01-01 18:30:00
12:50 PM,17.6,8.6,68,30.62,7.0,NNW,17.3,25.3,N/A,,Clear,330,2008-01-01 18:50:00
1:10 PM,19.4,10.4,68,30.61,10.0,NNW,18.4,-,N/A,,Clear,330,2008-01-01 19:10:00
1:30 PM,19.4,10.4,68,30.61,10.0,NW,15.0,-,N/A,,Clear,320,2008-01-01 19:30:00
1:50 PM,19.4,10.4,68,30.61,10.0,NW,19.6,-,N/A,,Clear,310,2008-01-01 19:50:00
2:10 PM,19.4,10.4,68,30.61,5.0,NW,24.2,28.8,N/A,,Haze,310,2008-01-01 20:10:00
2:30 PM,19.4,10.4,68,30.62,7.0,NW,20.7,27.6,N/A,,Clear,320,2008-01-01 20:30:00
2:50 PM,19.4,10.4,68,30.62,10.0,NW,15.0,-,N/A,,Clear,320,2008-01-01 20:50:00
3:10 PM,19.4,10.4,68,30.62,10.0,NW,17.3,25.3,N/A,,Clear,320,2008-01-01 21:10:00
3:30 PM,19.4,10.4,68,30.63,10.0,NW,18.4,-,N/A,,Clear,320,2008-01-01 21:30:00
3:50 PM,19.4,10.4,68,30.64,10.0,NW,21.9,26.5,N/A,,Scattered Clouds,320,2008-01-01 21:50:00
4:10 PM,19.4,10.4,68,30.64,10.0,NNW,15.0,26.5,N/A,,Mostly Cloudy,330,2008-01-01 22:10:00
4:30 PM,17.6,8.6,68,30.66,10.0,NNW,16.1,-,N/A,,Scattered Clouds,330,2008-01-01 22:30:00
4:50 PM,17.6,8.6,68,30.67,10.0,NNW,17.3,-,N/A,,Clear,330,2008-01-01 22:50:00
5:10 PM,15.8,8.6,73,30.68,10.0,NNW,16.1,-,N/A,,Clear,340,2008-01-01 23:10:00
5:51 PM,14.0,6.8,73,30.69,10.0,NNW,12.7,-,N/A,,Clear,330,2008-01-01 23:51:00
6:10 PM,12.2,5.0,73,30.69,10.0,NNW,9.2,-,N/A,,Clear,340,2008-01-02 00:10:00
6:12 PM,12.2,5.0,73,30.69,10.0,NNW,9.2,-,N/A,,Clear,340,2008-01-02 00:12:00
6:30 PM,12.2,5.0,73,30.69,10.0,NNW,8.1,-,N/A,,Clear,340,2008-01-02 00:30:00
6:50 PM,12.2,5.0,73,30.70,10.0,NNW,9.2,-,N/A,,Clear,340,2008-01-02 00:50:00
7:10 PM,10.4,5.0,79,30.70,10.0,North,11.5,-,N/A,,Clear,350,2008-01-02 01:10:00
7:30 PM,12.2,5.0,73,30.70,10.0,NNW,12.7,-,N/A,,Clear,340,2008-01-02 01:30:00
7:50 PM,12.2,5.0,73,30.71,10.0,NNW,12.7,-,N/A,,Clear,340,2008-01-02 01:50:00
8:10 PM,12.2,5.0,73,30.70,10.0,NNW,13.8,-,N/A,,Clear,330,2008-01-02 02:10:00
8:30 PM,12.2,5.0,73,30.71,10.0,NNW,15.0,-,N/A,,Clear,330,2008-01-02 02:30:00
8:50 PM,12.2,5.0,73,30.71,10.0,NNW,12.7,-,N/A,,Clear,330,2008-01-02 02:50:00
9:10 PM,10.4,3.2,73,30.72,10.0,NW,9.2,-,N/A,,Clear,320,2008-01-02 03:10:00
9:30 PM,8.6,3.2,79,30.73,10.0,WNW,4.6,-,N/A,,Clear,300,2008-01-02 03:30:00
9:50 PM,8.6,3.2,79,30.73,10.0,NW,5.8,-,N/A,,Clear,320,2008-01-02 03:50:00
10:10 PM,8.6,3.2,79,30.73,10.0,NW,5.8,-,N/A,,Clear,310,2008-01-02 04:10:00
10:30 PM,8.6,3.2,79,30.73,10.0,NW,4.6,-,N/A,,Clear,320,2008-01-02 04:30:00
10:50 PM,6.8,1.4,79,30.73,10.0,NW,8.1,-,N/A,,Clear,310,2008-01-02 04:50:00
11:10 PM,6.8,3.2,85,30.74,10.0,WNW,5.8,-,N/A,,Clear,300,2008-01-02 05:10:00
11:30 PM,6.8,1.4,79,30.74,10.0,NW,8.1,-,N/A,,Clear,310,2008-01-02 05:30:00
11:50 PM,8.6,3.2,79,30.74,10.0,NW,6.9,-,N/A,,Clear,310,2008-01-02 05:50:00